Home > Time Zones > World Clock > Weather > Peru > Lima > Past weeks

Flag for Peru Weather past 2 weeks in Lima, Lima, Peru

Now
63 °F

Overcast.


Feels Like: 63 °F
Forecast: 60 / 71 °F
Wind: 7 mph from South

Location: Lima-Callao / Aerop. Internacional Jorgechavez

Current Time: Aug 30, 2014 at 11:49:55 AM

Latest Report: Aug 30, 2014 at 11:00 AM


Visibility: N/A

Pressure: 30.01 "Hg

Humidity: 83%

Dew point: 57 °F

Location of LimaLocation

Historic Weather in Lima — Graph

°F

Lima temperature yesterday

Maximum temperature yesterday: 66 °F (at 1:00 PM)
Minimum temperature yesterday: 59 °F (at 4:00 AM)
Average temperature yesterday: 62 °F

Past Weeks' High & Low Weather Summary

 TemperatureHumidityPressure
High68 °F (Aug 25, 1:00 PM)94% (Aug 18, 1:00 AM)30.07 "Hg (Aug 18, 1:00 AM)
Low59 °F (Aug 16, 12:00 AM)68% (Aug 22, 11:00 AM)29.86 "Hg (Aug 25, 3:00 PM)
Average62 °F82%29.97 "Hg
* Reported Aug 15 11:00 AM — Aug 30 11:00 AM, Lima, Weather by CustomWeather, © 2014

Note: Actual official high and low records may vary slightly from our data, if they occured in-between our weather recording intervals... More about our weather records

Advertising

Lima weather history for previous 24 hours

 ConditionsComfort  
Time TempWeatherWind HumidityBarometerVisibility
11:00 AM
Aug 30
63 °FOvercast.7 mph83%30.01 "HgN/A
10:00 AM61 °FLow clouds.7 mph88%30.01 "HgN/A
9:00 AM61 °FLow clouds.6 mph88%30.01 "Hg5 mi
8:00 AM61 °FFog.6 mph88%30.01 "Hg3 mi
7:00 AM59 °FLow clouds.6 mph88%30.01 "Hg5 mi
6:00 AM59 °FLow clouds.6 mph88%29.98 "HgN/A
5:00 AM61 °FOvercast.8 mph83%29.98 "HgN/A
4:00 AM61 °FOvercast.8 mph83%29.98 "HgN/A
3:00 AM61 °FOvercast.9 mph83%29.98 "HgN/A
2:00 AM61 °FOvercast.12 mph83%29.98 "HgN/A
1:00 AM61 °FLow clouds.12 mph88%30.01 "HgN/A
12:00 AM61 °FLow clouds.14 mph88%30.04 "HgN/A
11:00 PM
Aug 29
61 °FLow clouds.14 mph88%30.04 "HgN/A
10:00 PM61 °FOvercast.12 mph88%30.01 "HgN/A
9:00 PM61 °FOvercast.10 mph88%30.01 "HgN/A
8:00 PM61 °FPassing clouds.10 mph88%29.98 "Hg5 mi
7:00 PM61 °FPassing clouds.12 mph88%29.98 "Hg5 mi
6:00 PM63 °FPartly sunny.14 mph83%29.95 "Hg5 mi
5:00 PM63 °FPartly sunny.14 mph83%29.95 "HgN/A
4:00 PM64 °FPartly sunny.15 mph78%29.95 "HgN/A
2:00 PM66 °FPartly sunny.14 mph73%29.95 "HgN/A
1:00 PM66 °FOvercast.13 mph73%29.98 "HgN/A
12:00 PM64 °FOvercast.9 mph73%30.01 "Hg5 mi
11:00 AM63 °FOvercast.9 mph77%30.01 "HgN/A
Weather by CustomWeather, © 2014

See weather overviewHow to use our weather pages